Location: Newark
(44.2003°N, 3.2583°E)
Time: 15:48:25
(UTC+00:00)

Courier 1B Rocket - Visible Passes

Search period start: 21 October 2019 00:00
Search period end: 31 October 2019 00:00
Orbit: 920 x 1202 km, 28.2° (Epoch: 20 October)

Date Brightness Start Highest point End Pass type
(mag) Time Alt. Az. Time Alt. Az. Time Alt. Az.
21 Oct 6.6 04:05:58 15° SSW 04:07:56 18° S 04:11:58 10° SE visible
22 Oct 6.9 03:08:48 15° SSE 03:08:48 15° SSE 03:10:59 10° SE visible
22 Oct 6.8 04:55:38 10° SW 04:59:35 17° S 05:03:34 10° SE visible
23 Oct 6.6 03:58:01 17° SSW 03:58:55 18° S 04:02:59 10° SE visible
24 Oct 7.1 03:00:51 14° SSE 03:00:51 14° SSE 03:02:15 10° SE visible
24 Oct 6.8 04:47:13 10° SW 04:50:32 15° S 04:54:04 10° SSE visible
25 Oct 6.6 03:50:04 17° S 03:50:04 17° S 03:53:46 10° SSE visible
26 Oct 7.3 02:52:55 11° SE 02:52:55 11° SE 02:53:18 10° SE visible
26 Oct 6.8 04:39:17 11° SW 04:41:28 13° SSW 04:44:06 10° S visible
27 Oct 6.9 03:42:09 14° S 03:42:09 14° S 03:44:19 10° SSE visible
29 Oct 7.2 03:34:19 10° S 03:34:19 10° S 03:34:25 10° S visible
